Temp
14 14 14 14 14 14 14 14 14 14 14 14 14 14 15 15 14 14 14 15 15 15 15 14 14 14 14 14 14 14 14 13 13 13 13 12 12 11 10 11 10 10 10 10 11
14 14 14 14 14 14 14 14 14 14 14 15 15 15 15 15 15 14 15 15 16 15 15 15 15 15 15 15 15 14 14 14 14 14 13 13 12 12 11 11 10 10 10 11 11
14 14 14 14 14 14 14 14 15 14 14 15 15 15 15 15 15 15 15 15 16 16 16 16 15 15 15 15 15 15 15 14 14 13 13 13 12 12 11 11 10 10 11 11 11
14 14 14 14 14 14 14 14 15 15 14 15 15 15 15 15 15 15 15 16 16 16 16 16 16 16 15 15 15 15 15 15 14 14 13 13 12 12 11 11 11 10 10 10 10
14 14 14 14 15 15 14 14 15 15 15 15 15 15 15 15 15 15 15 16 16 16 16 16 15 15 16 15 15 15 15 15 15 14 14 13 13 12 11 11 11 10 10 10 10
13 14 14 14 15 15 15 15 15 15 15 15 15 15 15 15 15 16 16 16 16 16 16 16 16 16 16 16 15 15 15 15 15 15 15 14 13 13 12 12 11 11 11 11 10
13 14 14 14 14 15 15 15 15 15 15 15 15 15 15 15 15 16 16 16 16 16 16 16 16 16 16 16 16 15 15 15 15 15 15 15 14 14 14 12 12 11 11 11 11
13 13 14 14 14 15 15 15 15 15 15 15 15 15 15 15 15 15 15 16 16 16 16 16 16 16 16 16 16 16 15 15 16 16 15 15 15 15 15 14 13 12 12 11 11
12 13 14 14 14 15 15 15 15 15 15 15 15 15 15 15 15 15 15 15 16 16 16 16 16 16 16 16 15 15 15 16 16 16 16 16 16 15 15 15 14 13 13 12 12
12 13 13 14 14 14 15 15 15 15 15 15 15 15 15 15 15 15 15 15 15 15 15 15 16 16 16 16 17 16 16 16 16 17 17 16 16 16 16 15 15 14 13 13 13
12 12 13 13 14 14 14 15 15 15 15 15 15 15 15 15 15 15 15 15 15 15 15 15 16 16 16 16 17 17 18 18 17 17 16 17 16 16 16 16 16 15 14 14 14
12 12 12 13 13 14 14 14 14 15 15 15 15 15 15 15 15 15 15 15 15 15 15 15 16 16 17 17 18 18 18 19 18 17 16 17 17 16 16 16 15 15 15 14 14
12 12 12 12 13 13 14 14 14 14 14 15 15 15 15 15 15 15 15 15 15 15 16 16 16 17 17 18 18 19 19 19 18 18 17 17 17 17 17 17 17 16 15 15 15
11 12 12 12 12 13 13 13 13 13 14 15 16 15 15 15 15 15 15 15 15 15 15 16 16 17 17 18 18 19 19 19 18 18 17 17 18 18 18 18 17 17 16 16 15
11 11 12 11 11 12 12 13 13 13 13 15 15 16 15 15 15 15 15 15 15 15 15 16 16 17 18 18 18 18 19 18 18 18 17 17 17 19 19 19 18 17 17 16 16
11 11 12 11 11 11 11 11 11 12 12 15 15 15 15 15 15 15 15 15 15 14 15 15 16 17 18 18 18 18 18 18 18 17 18 17 17 19 19 19 19 18 18 17 16
10 10 10 11 11 11 11 10 10 11 14 14 14 14 15 15 15 14 15 15 14 14 14 15 16 17 18 17 18 18 18 18 18 18 19 17 16 19 19 19 19 18 18 17 17
9 10 10 10 10 11 11 9 9 12 14 14 14 14 14 15 15 14 15 15 14 14 15 15 17 17 18 18 18 18 18 18 18 19 18 16 16 19 20 19 19 18 17 17 17
8 9 10 10 10 10 10 8 10 12 13 14 14 14 14 14 14 15 15 15 15 15 15 16 16 17 18 18 18 18 18 18 18 17 17 17 18 19 20 19 19 18 17 17 17
8 8 9 9 9 9 9 10 10 12 13 13 13 14 14 15 14 15 15 15 15 15 15 15 16 17 17 18 18 18 18 18 18 18 18 17 17 19 19 19 19 18 17 17 17
8 8 8 8 8 9 9 9 9 10 11 12 12 13 13 14 15 15 15 15 15 15 15 15 16 17 17 17 18 18 17 18 18 18 19 19 19 20 19 19 19 18 17 17 17
6 7 7 7 7 8 8 9 9 9 10 10 11 12 12 13 14 15 15 16 16 15 15 15 16 16 16 17 17 17 17 18 19 16 17 16 19 20 19 19 18 18 17 17 17
6 6 6 7 7 7 7 8 8 9 9 10 10 11 12 12 13 14 15 16 16 16 16 16 16 16 16 17 17 17 17 18 18 18 18 18 19 20 19 18 18 18 17 17 17
5 5 6 6 6 6 6 7 7 7 8 9 10 10 11 12 11 13 14 16 16 16 16 16 16 16 17 18 18 18 18 18 18 18 18 18 19 19 19 18 18 18 17 17 17
4 4 5 5 5 5 5 5 6 7 7 8 9 10 10 12 12 13 13 14 15 16 16 16 16 16 16 17 17 17 18 18 18 18 18 19 19 19 19 19 19 18 17 17 17
3 3 4 5 4 4 4 5 6 6 6 7 8 9 10 10 13 13 13 14 15 16 16 16 16 16 17 17 17 17 17 17 18 18 18 19 19 19 19 18 18 18 17 17 17
2 2 3 3 3 3 4 4 5 6 6 7 7 8 9 12 12 13 13 14 14 14 15 16 16 17 16 17 17 17 17 18 18 18 18 18 19 19 19 19 18 18 18 17 17
Height
3197 3199 3200 3202 3204 3205 3206 3207 3209 3210 3211 3212 3212 3212 3213 3214 3213 3213 3213 3214 3212 3211 3211 3210 3210 3210 3210 3209 3208 3208 3210 3209 3209 3210 3211 3211 3211 3210 3210 3210 3211 3211 3213 3214 3215
3197 3198 3200 3201 3204 3205 3207 3208 3209 3211 3212 3213 3214 3214 3216 3216 3217 3216 3217 3216 3215 3214 3214 3213 3213 3213 3213 3212 3212 3211 3211 3211 3211 3212 3212 3213 3213 3213 3213 3212 3213 3215 3215 3216 3217
3197 3198 3199 3200 3203 3205 3207 3208 3210 3212 3213 3214 3216 3216 3217 3218 3220 3219 3218 3218 3217 3216 3216 3216 3216 3216 3215 3215 3215 3214 3213 3213 3214 3214 3214 3214 3214 3215 3214 3215 3216 3217 3217 3218 3219
3196 3197 3198 3200 3202 3204 3207 3208 3210 3212 3214 3215 3217 3217 3218 3220 3223 3221 3221 3220 3220 3219 3219 3219 3219 3219 3218 3218 3217 3217 3216 3215 3215 3215 3216 3216 3216 3217 3217 3217 3217 3219 3221 3221 3221
3196 3196 3197 3199 3201 3203 3205 3208 3209 3211 3213 3216 3217 3218 3219 3221 3222 3223 3223 3223 3223 3222 3222 3221 3220 3221 3220 3220 3220 3219 3218 3218 3217 3217 3217 3218 3218 3218 3218 3218 3219 3220 3222 3223 3224
3195 3196 3196 3197 3199 3201 3203 3206 3208 3210 3212 3215 3217 3219 3221 3222 3222 3224 3224 3224 3224 3224 3224 3223 3222 3222 3221 3221 3221 3221 3220 3220 3219 3220 3219 3219 3219 3219 3220 3220 3221 3222 3224 3225 3226
3194 3194 3195 3196 3197 3199 3201 3203 3206 3209 3211 3214 3216 3218 3220 3223 3223 3224 3225 3225 3225 3225 3224 3224 3224 3224 3223 3221 3221 3222 3222 3222 3221 3222 3222 3221 3221 3221 3221 3222 3223 3223 3225 3226 3227
3192 3193 3193 3194 3196 3197 3198 3200 3203 3207 3209 3211 3214 3217 3218 3220 3221 3223 3224 3225 3225 3225 3224 3224 3224 3224 3223 3222 3222 3222 3223 3223 3223 3223 3224 3224 3224 3223 3223 3223 3224 3225 3225 3227 3228
3190 3191 3192 3192 3193 3194 3196 3198 3200 3204 3207 3209 3212 3214 3216 3218 3220 3221 3223 3224 3224 3225 3224 3225 3225 3225 3224 3223 3223 3223 3223 3224 3224 3223 3224 3226 3225 3224 3225 3225 3225 3226 3225 3226 3227
3188 3188 3190 3191 3191 3192 3194 3196 3198 3201 3203 3206 3208 3213 3212 3215 3217 3220 3221 3222 3223 3223 3224 3225 3225 3225 3225 3225 3224 3223 3222 3223 3224 3225 3224 3225 3226 3226 3225 3226 3227 3228 3228 3227 3227
3186 3186 3187 3188 3189 3189 3192 3194 3198 3200 3199 3202 3204 3207 3209 3213 3214 3217 3219 3220 3221 3222 3223 3223 3225 3225 3225 3224 3222 3221 3220 3221 3223 3224 3225 3225 3226 3226 3227 3227 3228 3228 3228 3228 3229
3185 3184 3185 3185 3186 3188 3189 3191 3192 3196 3197 3198 3200 3203 3206 3208 3211 3213 3217 3219 3219 3220 3221 3224 3222 3225 3224 3222 3221 3221 3220 3221 3222 3223 3224 3224 3225 3225 3226 3227 3227 3228 3228 3229 3229
3182 3183 3183 3183 3183 3185 3187 3189 3189 3191 3192 3194 3195 3198 3202 3205 3206 3210 3213 3215 3217 3218 3218 3219 3222 3222 3223 3221 3220 3219 3219 3220 3222 3222 3223 3223 3224 3223 3224 3225 3226 3227 3228 3228 3228
3179 3180 3181 3182 3184 3182 3184 3186 3187 3189 3190 3188 3188 3192 3196 3199 3201 3207 3208 3212 3213 3215 3217 3217 3219 3222 3222 3221 3220 3219 3219 3221 3222 3222 3223 3223 3222 3221 3222 3223 3224 3226 3227 3227 3228
3176 3177 3178 3179 3180 3179 3182 3183 3185 3188 3189 3183 3181 3183 3187 3192 3198 3201 3205 3207 3208 3211 3215 3216 3216 3219 3219 3219 3219 3220 3220 3221 3221 3221 3222 3221 3223 3217 3218 3219 3221 3223 3226 3226 3227
3172 3174 3175 3176 3177 3179 3179 3181 3185 3190 3182 3179 3178 3178 3182 3187 3193 3197 3200 3203 3206 3207 3208 3210 3213 3214 3216 3217 3218 3219 3220 3221 3220 3221 3221 3219 3221 3215 3216 3217 3220 3222 3223 3224 3225
3168 3169 3171 3171 3173 3175 3177 3180 3185 3181 3178 3177 3176 3176 3179 3182 3187 3191 3195 3197 3201 3204 3203 3206 3207 3210 3213 3216 3217 3219 3220 3221 3220 3220 3217 3217 3218 3212 3215 3216 3219 3220 3222 3222 3221
3164 3165 3166 3166 3168 3170 3174 3179 3177 3171 3172 3173 3173 3174 3175 3178 3182 3186 3190 3192 3195 3199 3200 3202 3205 3207 3210 3213 3215 3217 3218 3218 3216 3215 3216 3216 3213 3211 3212 3215 3217 3219 3220 3220 3218
3159 3160 3160 3161 3164 3167 3170 3169 3164 3168 3168 3169 3171 3171 3171 3173 3177 3181 3184 3186 3188 3193 3198 3197 3200 3204 3207 3209 3213 3213 3215 3216 3216 3215 3216 3213 3210 3210 3211 3213 3216 3218 3219 3219 3217
3154 3155 3155 3156 3158 3161 3163 3158 3160 3163 3166 3167 3167 3168 3167 3169 3172 3175 3179 3178 3183 3187 3192 3195 3198 3200 3202 3205 3207 3209 3212 3213 3213 3214 3213 3210 3208 3207 3209 3211 3214 3215 3217 3217 3215
3150 3150 3150 3151 3153 3154 3151 3152 3156 3160 3162 3165 3164 3164 3164 3165 3167 3169 3171 3175 3177 3182 3187 3191 3194 3197 3198 3199 3201 3204 3204 3208 3209 3209 3207 3206 3205 3203 3207 3210 3212 3213 3214 3214 3213
3145 3146 3146 3146 3149 3146 3146 3149 3153 3155 3158 3159 3161 3162 3162 3162 3162 3164 3166 3170 3174 3176 3180 3186 3189 3191 3193 3194 3195 3197 3199 3200 3202 3206 3205 3206 3204 3202 3205 3208 3210 3211 3212 3212 3212
3141 3141 3141 3142 3141 3142 3142 3142 3145 3148 3152 3153 3156 3158 3159 3158 3160 3158 3161 3166 3169 3172 3174 3180 3182 3186 3188 3191 3190 3190 3193 3196 3199 3200 3201 3203 3201 3200 3201 3204 3206 3208 3210 3211 3211
3139 3138 3137 3137 3137 3137 3136 3137 3138 3142 3144 3147 3148 3151 3154 3154 3156 3154 3156 3160 3163 3167 3172 3175 3177 3178 3179 3184 3186 3187 3188 3190 3193 3195 3196 3197 3198 3198 3198 3200 3203 3205 3207 3208 3209
3135 3134 3133 3133 3133 3132 3132 3133 3134 3135 3137 3139 3140 3142 3146 3149 3151 3150 3153 3155 3157 3159 3165 3168 3169 3173 3176 3178 3181 3183 3184 3184 3186 3189 3191 3193 3194 3195 3196 3196 3197 3203 3204 3205 3206
3131 3130 3129 3128 3128 3128 3128 3129 3130 3130 3131 3133 3134 3138 3139 3140 3145 3149 3149 3151 3153 3154 3157 3161 3164 3168 3169 3173 3175 3177 3178 3180 3182 3184 3185 3187 3189 3191 3193 3194 3196 3198 3199 3202 3203
3126 3125 3123 3123 3122 3122 3123 3124 3125 3125 3127 3127 3128 3129 3132 3135 3140 3144 3145 3146 3147 3150 3153 3156 3158 3162 3162 3166 3169 3169 3169 3174 3177 3178 3181 3181 3184 3186 3187 3187 3189 3191 3195 3198 3200
Wind_Speed
8 11 14 15 15 15 13 10 9 10 11 14 16 15 14 16 17 17 21 21 20 19 17 14 12 10 9 10 11 14 13 12 9 9 5 8 10 10 8 7 7 13 15 15 14
8 10 13 16 16 16 15 13 10 11 11 12 15 16 17 16 17 17 19 22 22 22 20 17 14 12 13 12 12 12 12 14 13 11 8 7 8 14 10 9 8 16 16 15 18
6 9 12 15 17 18 17 15 13 12 12 12 12 13 13 11 10 12 16 19 21 21 17 18 18 14 12 11 12 12 11 10 11 13 11 8 9 10 13 10 5 13 15 20 21
4 8 11 14 17 19 19 17 15 14 13 13 13 11 10 8 6 8 13 17 18 20 17 16 14 16 12 12 10 10 11 12 12 13 10 12 12 9 12 8 12 16 18 25 25
4 6 9 13 16 19 20 20 18 18 16 13 13 12 10 8 5 6 10 13 14 16 16 14 14 10 8 10 10 8 11 11 11 11 12 11 10 9 11 7 11 17 19 21 23
4 5 7 11 16 19 21 22 21 20 19 16 13 12 11 9 6 6 6 7 10 12 12 12 12 9 8 5 1 5 6 7 10 10 11 11 10 10 10 8 11 17 16 20 20
5 6 6 9 13 19 21 24 24 23 22 20 17 14 13 11 8 7 5 3 3 6 8 9 12 10 6 6 6 3 2 3 6 7 7 9 9 7 9 8 11 14 15 16 20
5 6 7 8 10 15 21 24 25 26 26 25 22 19 16 16 13 9 6 3 2 4 8 10 11 11 7 7 3 3 4 2 4 4 3 6 6 7 9 8 9 12 15 14 15
5 6 7 8 9 12 17 23 25 26 25 26 27 24 21 20 16 13 10 5 6 7 11 12 13 11 7 5 4 4 5 5 6 5 6 1 3 3 7 8 7 11 14 16 15
6 6 7 9 10 11 13 17 23 26 27 27 29 29 25 25 20 16 11 9 10 12 14 13 14 10 8 5 6 9 10 7 9 8 6 6 1 1 3 6 6 6 9 13 16
8 7 6 8 10 12 12 13 18 25 29 29 29 31 25 25 27 22 16 14 15 17 14 14 18 12 10 10 16 12 8 7 4 8 9 7 6 4 1 2 6 5 6 9 12
9 9 7 8 10 12 12 12 15 19 27 30 30 29 30 24 23 29 26 20 20 20 20 20 19 7 8 10 8 4 7 5 5 8 9 8 7 10 6 6 3 6 5 5 9
11 10 9 8 10 11 12 13 13 13 17 28 32 32 29 32 25 24 25 27 27 23 25 22 13 8 6 5 5 9 3 8 4 7 9 10 11 12 10 12 9 8 6 7 7
12 12 11 9 10 12 13 13 13 10 9 15 28 35 33 31 35 22 26 26 27 23 23 20 19 13 7 6 1 4 7 6 6 3 5 11 4 8 12 11 13 12 9 6 7
12 12 12 12 12 13 13 13 12 7 4 5 17 26 36 37 26 28 24 24 24 23 18 16 10 14 8 3 2 1 2 4 5 8 6 8 6 3 8 17 11 14 12 10 9
13 12 13 13 13 14 14 14 10 6 8 4 7 19 27 37 32 25 28 23 21 19 22 23 13 12 11 6 5 4 7 6 8 9 5 9 10 6 5 6 10 9 8 6 11
15 14 14 16 17 15 15 15 8 9 6 6 7 14 23 27 36 32 26 24 25 19 22 22 24 17 16 11 7 6 8 4 3 4 2 4 8 16 5 8 9 8 5 5 6
14 14 14 18 19 19 18 20 13 10 23 8 3 10 17 23 34 35 28 24 30 24 15 21 18 23 18 17 12 10 13 8 4 3 2 3 7 6 11 10 10 10 5 5 5
14 13 15 16 19 20 22 26 18 26 11 19 19 10 17 20 21 38 34 28 23 31 15 20 19 20 22 18 16 16 13 13 9 4 3 4 8 6 11 12 11 11 8 2 5
14 13 14 16 17 21 27 35 24 21 20 13 11 10 12 22 25 23 32 27 33 28 28 14 16 22 16 17 20 19 13 9 9 4 4 4 8 8 14 13 11 12 7 2 6
13 13 13 15 16 22 35 38 30 23 20 13 11 10 12 13 25 27 19 28 24 28 28 23 16 15 23 21 20 23 24 16 11 7 4 2 6 12 13 13 10 14 5 1 9
14 13 12 13 16 24 32 33 35 24 35 25 17 13 6 7 13 28 27 24 21 29 31 30 14 21 19 12 8 10 20 26 15 7 8 4 10 10 15 15 13 13 6 1 6
13 14 15 14 18 21 26 30 33 33 36 29 28 19 16 10 4 14 26 25 31 17 24 27 21 17 13 16 21 17 21 20 19 15 10 6 7 11 16 22 20 16 11 6 3
14 11 14 15 15 18 22 25 29 26 32 35 36 33 29 20 14 8 12 21 27 33 22 21 25 23 24 14 15 19 18 16 19 14 15 14 11 10 18 26 26 21 16 12 3
13 14 14 14 12 17 22 15 18 21 25 22 33 37 35 34 24 23 14 15 15 28 34 32 24 28 30 28 23 17 14 14 18 18 17 15 15 12 14 21 28 22 19 16 8
16 16 17 18 20 20 17 24 19 19 21 22 28 24 24 30 32 15 18 13 13 18 29 34 28 29 32 28 28 29 26 18 19 19 16 14 15 10 15 23 29 27 24 18 12
19 18 19 19 18 19 20 19 24 28 21 22 21 28 28 28 24 20 23 19 12 11 15 28 32 29 27 27 27 25 29 24 27 25 18 20 20 20 19 20 29 31 25 22 18
Wind_Direction
164 175 174 170 172 171 172 168 154 139 124 117 118 124 113 96 87 82 81 83 80 79 74 80 75 69 71 72 66 69 72 66 63 59 80 85 74 90 81 92 92 122 125 120 124
167 176 183 180 178 181 182 180 173 155 140 127 127 131 117 104 90 79 82 83 71 64 63 78 80 78 75 85 77 68 67 68 63 53 48 79 72 60 73 67 110 132 129 123 120
164 179 187 190 184 185 187 188 184 175 159 147 140 145 143 124 98 71 73 73 72 65 64 63 62 57 68 91 73 61 54 55 64 61 57 75 65 63 60 71 92 132 128 115 109
168 181 188 196 194 189 191 193 195 190 177 165 157 167 168 150 113 87 81 72 73 71 68 64 54 50 67 62 68 71 53 52 48 55 63 73 73 67 62 87 122 132 123 113 110
181 188 192 196 201 198 194 197 200 199 193 187 173 175 183 172 153 120 93 82 72 68 66 50 49 54 46 75 63 81 62 62 58 50 60 63 75 70 74 85 122 134 137 125 116
211 199 199 200 202 204 200 199 202 205 202 202 198 187 191 199 199 164 119 88 72 59 41 38 35 24 27 6 30 28 59 58 57 63 62 49 60 71 88 105 129 143 142 131 120
236 221 208 205 203 205 206 203 204 207 209 211 213 212 205 206 200 196 170 115 54 29 10 3 8 15 17 20 354 282 287 43 46 44 50 54 51 45 76 115 145 150 152 145 137
247 238 226 215 210 207 208 209 206 208 212 216 217 216 220 219 217 209 201 205 291 328 319 332 342 355 343 25 36 141 236 340 350 1 37 77 50 57 65 91 131 155 168 162 151
256 244 238 230 219 213 212 211 210 210 211 212 216 220 226 223 224 216 217 230 265 284 294 308 323 337 336 5 351 240 269 277 309 315 315 218 62 54 81 83 106 131 148 159 165
263 254 241 238 232 221 216 214 214 213 213 213 215 219 225 228 225 208 215 242 259 270 279 297 310 320 307 292 311 313 284 292 266 297 302 286 180 34 80 99 104 124 143 149 157
273 262 250 241 237 233 221 218 217 218 217 215 218 219 224 227 230 224 231 250 250 263 274 286 299 291 303 297 296 311 293 287 255 260 280 280 265 222 232 102 95 91 122 147 148
264 269 255 248 241 236 234 224 223 225 223 221 221 221 222 226 226 231 232 234 243 251 260 267 269 268 287 302 298 318 320 219 233 231 249 249 267 259 224 175 152 123 127 138 133
257 261 262 246 247 240 236 237 235 234 239 227 225 223 221 223 224 219 226 233 240 249 252 257 256 206 290 293 313 322 324 193 209 233 247 252 256 236 198 202 188 181 171 150 140
257 256 257 250 246 245 237 237 243 247 261 243 230 227 221 223 229 220 223 231 239 244 248 250 249 242 267 237 357 9 142 194 218 263 234 237 289 236 222 209 216 193 195 170 184
268 260 254 250 247 242 238 236 241 245 286 233 221 220 221 219 227 223 219 226 231 238 230 226 210 208 237 202 157 271 168 217 248 248 252 241 245 281 222 205 206 199 205 221 218
264 252 252 250 247 247 235 235 234 225 249 234 217 215 217 217 220 218 219 222 232 231 229 224 210 208 216 182 168 247 212 231 251 237 257 247 220 287 239 195 188 206 207 227 242
282 266 244 235 234 235 233 223 213 216 241 224 222 219 216 217 212 216 222 225 218 219 228 234 224 212 214 214 201 215 230 235 208 191 251 246 224 239 186 166 184 182 184 262 249
284 277 264 242 231 220 216 214 225 234 226 195 228 223 220 214 213 213 219 225 220 217 222 221 225 217 214 223 225 228 223 243 269 216 144 260 232 253 197 176 185 193 209 231 316
284 279 261 253 240 225 211 204 224 226 243 234 243 252 230 217 215 213 215 222 229 217 216 215 223 218 223 233 230 230 226 235 232 251 276 233 263 226 190 176 183 198 185 224 63
292 274 268 254 240 229 220 225 229 219 234 247 237 234 227 219 212 211 216 231 228 222 216 228 225 220 214 226 227 222 238 220 214 196 228 231 251 222 193 186 175 174 165 184 16
296 294 272 255 238 228 227 230 236 223 227 233 241 224 230 224 219 220 218 219 218 217 211 220 223 221 226 233 233 227 235 229 218 202 217 217 252 246 210 197 184 173 160 50 0
302 293 271 257 242 234 235 238 238 239 235 242 238 239 214 226 227 221 228 219 221 218 212 216 228 231 228 211 199 221 227 215 212 203 216 228 258 257 210 203 188 189 182 184 356
299 291 280 272 257 250 246 246 242 242 239 244 244 237 246 217 244 221 228 226 226 224 221 212 218 228 235 234 238 235 219 223 229 237 210 214 253 256 209 197 196 200 199 213 315
309 304 286 276 265 253 254 255 248 248 246 245 246 245 239 238 238 238 209 224 226 230 230 224 221 220 223 210 221 218 225 227 221 220 230 232 258 281 215 198 202 204 202 207 213
302 297 288 275 276 251 246 248 241 237 243 242 242 242 243 246 241 250 224 200 213 222 222 224 232 240 243 243 243 246 253 260 243 233 224 237 248 265 257 234 218 203 209 206 205
303 300 292 280 267 260 258 255 239 233 237 229 238 235 240 237 239 248 238 223 222 212 213 227 230 241 242 246 249 257 257 260 231 217 226 249 261 263 258 234 221 211 212 209 212
298 297 291 285 271 262 249 255 246 254 248 241 234 237 232 234 229 235 248 208 179 177 214 227 224 229 228 238 248 256 251 250 236 238 257 263 269 263 274 240 234 219 214 216 219